[[{"header":{"parameterUnit":"m.s-1","parameterCategory":1,"la1":30.2991,"la2":30.254,"lo1":-89.0895,"lo2":-89.0444,"dy":0.0017,"dx":0.0017,"nx":28,"ny":28,"refTime":"2023-10-11T03:00:00:Z","depth":0,"parameterNumber":2,"parameterNumberName":"U-component_of_WINDS"},"data":[0,0,0,0,0,0,0,0,0,0,0,0,0,0,0,0,0,0,0,0,0,0,0,0,0,0,0,0,0,0,0,0,0,0,0,0,0,0,0,0,0,0,0,0,0,0,0,0,0,0,0,0,0,0,0,0,0,0,-9.2134,-9.2135,0,-9.2243,-9.2244,-9.2245,-9.202,-9.2012,-9.2005,-9.1998,-9.2112,-9.2121,-9.2131,0,0,0,0,0,0,0,0,0,0,0,0,0,-9.173,-9.1739,-9.2134,-9.2135,-9.2136,-9.2243,-9.2244,-9.2246,-9.2021,-9.2012,-9.2003,-9.1995,-9.2109,-9.212,-9.2132,0,0,0,0,0,0,0,0,0,0,0,0,0,-9.1879,-9.1742,-9.2133,-9.2037,-9.2029,-9.2242,-9.2244,-9.2246,-9.2023,-9.2012,-9.2001,-9.199,-9.2105,-9.2119,-9.2134,-9.2446,0,0,-9.2179,-9.2185,0,0,0,0,0,0,0,0,-9.1871,-9.1894,-9.205,-9.2044,-9.2036,-9.2106,-9.2143,-9.2313,-9.2026,-9.2026,-9.1998,-9.1985,-9.2119,-9.2132,-9.2177,-9.2451,-9.2456,-9.218,-9.2189,-9.2196,-9.22,0,0,0,0,0,0,0,-9.1861,-9.1888,-9.2177,-9.2052,-9.2044,-9.1988,-9.1997,-9.2175,-9.2133,-9.2025,-9.2008,-9.2024,-9.2113,-9.2163,-9.2178,-9.2458,-9.218,-9.2193,-9.2202,-9.2208,-9.2992,-9.3003,0,0,0,0,0,0,-9.1863,-9.1881,-9.2173,-9.218,-9.1925,-9.2004,-9.2014,-9.2095,-9.213,-9.2125,-9.2034,-9.2014,-9.2143,-9.2161,-9.2181,-9.2547,-9.2196,-9.221,-9.2218,-9.298,-9.2994,-9.3007,0,0,0,0,0,0,-9.1855,-9.1891,-9.2169,-9.2026,-9.2057,-9.2023,-9.2115,-9.2103,-9.2152,-9.2137,-9.2129,-9.2093,-9.2135,-9.216,-9.2381,-9.2548,-9.2216,-9.223,-9.2966,-9.2984,-9.3001,-9.3284,0,0,0,0,0,0,-9.1844,-9.189,-9.2008,-9.2031,-9.2066,-9.2369,-9.2126,-9.2113,-9.2178,-9.2153,-9.219,-9.2186,-9.2128,-9.236,-9.2396,-9.2562,-9.2241,-9.2951,-9.2974,-9.2995,-9.3259,-9.3309,-9.3352,0,0,0,0,0,-9.1831,-9.2084,-9.2015,-9.2052,-9.2213,-9.2378,-9.2398,-9.2327,-9.2193,-9.2311,-9.2301,-9.2184,-9.2524,-9.2385,-9.2423,-9.2597,-9.294,-9.2968,-9.2993,-9.3239,-9.3299,-9.3351,0,0,0,0,0,0,-9.2083,-9.2086,-9.2009,-9.2278,-9.233,-9.234,-9.2487,-9.2394,-9.2486,-9.2458,-9.2366,-9.2376,-9.2615,-9.2628,-9.2472,-9.2899,-9.2709,-9.2745,-9.2883,-9.294,-9.2985,-9.2977,-9.2254,0,0,0,0,0,-9.217,-9.2304,-9.2298,-9.2536,-9.2566,-9.2523,-9.2592,-9.2532,-9.2583,-9.2604,-9.2609,-9.2663,-9.2781,-9.2861,-9.297,-9.326,-9.3264,-9.3398,-9.3444,-9.3482,-9.3514,-9.3667,-9.3726,-9.3095,-9.3095,-9.3095,0,0,-9.2351,-9.2369,-9.2459,-9.2587,-9.262,-9.276,-9.2543,-9.2701,-9.2804,-9.2628,-9.2836,-9.2843,-9.2896,-9.3153,-9.3266,-9.3171,-9.3689,-9.3517,-9.3547,-9.3558,-9.37,-9.376,-9.3813,-9.3114,-9.311,-9.3107,0,0,-9.2752,-9.278,-9.2979,-9.3017,-9.3069,-9.3038,-9.3087,-9.3112,-9.3109,-9.3316,-9.3187,-9.3308,-9.3514,-9.3557,-9.3606,-9.4022,-9.3917,-9.406,-9.4301,-9.4451,-9.45,-9.4544,-9.4691,-9.4745,-9.4092,-9.4092,-9.4093,0,-9.297,-9.3176,-9.3094,-9.3261,-9.332,-9.3166,-9.3367,-9.3408,-9.3494,-9.3538,-9.343,-9.3684,-9.3709,-9.3973,-9.4074,-9.412,-9.4171,-9.4055,-9.45,-9.4543,-9.4582,-9.4721,-9.4777,-9.4109,-9.4107,-9.4106,-9.4104,0,-9.3441,-9.3586,-9.3741,-9.3826,-9.3903,-9.4087,-9.4032,-9.412,-9.4054,-9.4035,-9.4247,-9.4272,-9.4382,-9.444,-9.4377,-9.4695,-9.4634,-9.4515,-9.4321,-9.466,-9.4789,-9.4842,-9.4133,-9.4127,-9.4122,-9.4118,0,0,-9.4005,-9.4041,-9.41,-9.4136,-9.4182,-9.4292,-9.4468,-9.4574,-9.465,-9.4715,-9.4859,-9.5037,-9.4926,-9.4982,-9.4922,-9.5054,-9.538,-9.4918,-9.4917,-9.5002,-9.5729,-9.5818,-9.5881,-9.5311,-9.5321,-9.5329,-9.5724,0,-9.4401,-9.4702,-9.4633,-9.4931,-9.5062,-9.4918,-9.507,-9.5115,-9.5102,-9.5212,-9.5196,-9.5323,-9.5168,-9.5201,-9.5325,-9.5314,-9.5525,-9.5285,-9.5444,-9.545,-9.5434,-9.5949,-9.6043,-9.6416,-9.5774,-9.5783,-9.5789,0,-9.4903,-9.4985,-9.5296,-9.5319,-9.5371,-9.551,-9.5601,-9.5708,-9.5755,-9.5736,-9.5798,-9.5712,-9.5886,-9.5691,-9.5928,-9.5767,-9.5827,-9.5832,-9.5845,-9.5856,-9.564,-9.5973,-9.6533,-9.6589,-9.5868,-9.5862,-9.5856,0,-9.5282,-9.547,-9.5679,-9.5715,-9.5747,-9.5848,-9.5866,-9.5902,-9.597,-9.6049,-9.6092,-9.6192,-9.6246,-9.6325,-9.6268,-9.6132,-9.6514,-9.6316,-9.6503,-9.6504,-9.6589,-9.6584,-9.7166,-9.6631,-9.663,-9.6629,-9.6628,0,-9.573,-9.5926,-9.5849,-9.5978,-9.6192,-9.6111,-9.6325,-9.6326,-9.636,-9.6486,-9.6367,-9.6488,-9.6406,-9.652,-9.6477,-9.6679,-9.6705,-9.6694,-9.668,-9.6704,-9.6705,-9.6742,-9.6714,-9.6644,-9.6641,-9.6638,-9.6635,0,-9.6189,-9.6146,-9.6364,-9.6376,-9.6384,-9.6541,-9.6551,-9.667,-9.6648,-9.6809,-9.6842,-9.6807,-9.6935,-9.6886,-9.7023,-9.6994,-9.7251,-9.7204,-9.7235,-9.7223,-9.7412,-9.7394,-9.8036,-9.8115,-9.7532,-9.7537,-9.7542,0,-9.6477,-9.6624,-9.6652,-9.6727,-9.6753,-9.6877,-9.6945,-9.687,-9.6946,-9.701,-9.7122,-9.7239,-9.7328,-9.754,-9.7527,-9.763,-9.7583,-9.7801,-9.7598,-9.7617,-9.7585,-9.7576,-9.759,-9.7842,-9.7849,-9.7854,-9.7859,0,-9.6994,-9.6965,-9.7067,-9.7163,-9.7247,-9.7318,-9.7379,-9.7448,-9.7376,-9.7467,-9.7596,-9.7666,-9.7804,-9.7922,-9.8014,-9.8032,-9.7934,-9.7923,-9.7971,-9.7996,-9.8008,-9.8002,-9.7344,-9.7908,-9.7903,-9.7899,-9.7897,-9.7895,-9.7375,-9.7497,-9.7535,-9.7653,-9.7691,-9.775,-9.7862,-9.7853,-9.7959,-9.8065,-9.8015,-9.8164,-9.8206,-9.8319,-9.8351,-9.8466,-9.8381,-9.8452,-9.8469,-9.8487,-9.8511,-9.7991,-9.8483,-9.8481,-9.848,-9.8478,-9.8477,0,-9.7883,-9.79,-9.8009,-9.8097,-9.819,-9.8089,-9.8151,-9.8235,-9.8367,-9.8414,-9.8505,-9.8652,-9.8765,-9.8761,-9.8865,-9.8958,-9.8916,-9.8988,-9.898,-9.8985,-9.8582,-9.8529,-9.9021,-9.902,-9.902,-9.902,-9.902,-9.902,-9.8159,-9.836,-9.8336,-9.8555,-9.8569,-9.8714,-9.8758,-9.8812,-9.8848,-9.9018,-9.9111,-9.9107,-9.9133,-9.9238,-9.9337,-9.9333,-9.9376,-9.9465,-9.9445,-9.9068,-9.9014,-9.8962,-9.8912,-9.9476,-9.9477,-9.9837,-9.9841,-9.9843]},{"header":{"parameterUnit":"m.s-1","parameterCategory":1,"la1":30.2991,"la2":30.254,"lo1":-89.0895,"lo2":-89.0444,"dy":0.0017,"dx":0.0017,"nx":28,"ny":28,"refTime":"2023-10-11T03:00:00:Z","depth":0,"parameterNumber":3,"parameterNumberName":"V-component_of_WINDS"},"data":[0,0,0,0,0,0,0,0,0,0,0,0,0,0,0,0,0,0,0,0,0,0,0,0,0,0,0,0,0,0,0,0,0,0,0,0,0,0,0,0,0,0,0,0,0,0,0,0,0,0,0,0,0,0,0,0,0,0,-2.3869,-2.3868,0,-2.3857,-2.3857,-2.3857,-2.3929,-2.3932,-2.3934,-2.3936,-2.3912,-2.3909,-2.3907,0,0,0,0,0,0,0,0,0,0,0,0,0,-2.3943,-2.3942,-2.3869,-2.3868,-2.3868,-2.3857,-2.3857,-2.3857,-2.3929,-2.3932,-2.3934,-2.3937,-2.3913,-2.391,-2.3907,0,0,0,0,0,0,0,0,0,0,0,0,0,-2.3919,-2.3941,-2.3869,-2.3903,-2.3906,-2.3857,-2.3857,-2.3857,-2.3929,-2.3932,-2.3935,-2.3938,-2.3914,-2.391,-2.3906,-2.3819,0,0,-2.3894,-2.3893,0,0,0,0,0,0,0,0,-2.392,-2.3916,-2.3898,-2.3901,-2.3904,-2.3898,-2.3875,-2.3844,-2.3928,-2.392,-2.3936,-2.3939,-2.3904,-2.3901,-2.3892,-2.3818,-2.3817,-2.3894,-2.3892,-2.389,-2.3889,0,0,0,0,0,0,0,-2.3922,-2.3917,-2.3864,-2.3898,-2.3902,-2.3916,-2.3916,-2.3869,-2.3894,-2.3921,-2.3926,-2.3924,-2.3906,-2.3895,-2.3892,-2.3817,-2.3894,-2.3891,-2.3888,-2.3887,-2.3672,-2.3669,0,0,0,0,0,0,-2.392,-2.3918,-2.3864,-2.3863,-2.3921,-2.3912,-2.3912,-2.3897,-2.3895,-2.3898,-2.3922,-2.3928,-2.39,-2.3896,-2.3891,-2.379,-2.389,-2.3886,-2.3884,-2.3675,-2.3671,-2.3667,0,0,0,0,0,0,-2.3922,-2.3915,-2.3865,-2.3892,-2.3887,-2.3908,-2.389,-2.3895,-2.3884,-2.3896,-2.3899,-2.3907,-2.3903,-2.3896,-2.3838,-2.379,-2.3885,-2.3881,-2.3679,-2.3674,-2.3669,-2.3586,0,0,0,0,0,0,-2.3923,-2.3915,-2.3884,-2.3891,-2.3885,-2.3814,-2.3887,-2.3892,-2.3879,-2.3887,-2.3883,-2.3885,-2.3905,-2.3843,-2.3834,-2.3786,-2.3878,-2.3683,-2.3677,-2.3671,-2.3593,-2.3579,-2.3567,0,0,0,0,0,-2.3926,-2.3859,-2.3882,-2.3876,-2.3848,-2.3811,-2.3808,-2.3835,-2.3875,-2.3843,-2.385,-2.3885,-2.3797,-2.3836,-2.3826,-2.3777,-2.3686,-2.3679,-2.3671,-2.3599,-2.3582,-2.3567,0,0,0,0,0,0,-2.3841,-2.386,-2.3887,-2.382,-2.3814,-2.3824,-2.3784,-2.3816,-2.3795,-2.3803,-2.3834,-2.3833,-2.3768,-2.3767,-2.381,-2.3693,-2.3748,-2.3738,-2.3697,-2.368,-2.3667,-2.3668,-2.3875,0,0,0,0,0,-2.3816,-2.3788,-2.3804,-2.3744,-2.374,-2.3763,-2.3747,-2.377,-2.3763,-2.3759,-2.3763,-2.3751,-2.3722,-2.3701,-2.3674,-2.3594,-2.3593,-2.3555,-2.3542,-2.3531,-2.3521,-2.3479,-2.3462,-2.3642,-2.3642,-2.3643,0,0,-2.3761,-2.3768,-2.3747,-2.3727,-2.3725,-2.3693,-2.376,-2.3722,-2.3697,-2.3752,-2.3699,-2.37,-2.369,-2.362,-2.3589,-2.3617,-2.3472,-2.3521,-2.3512,-2.3509,-2.3469,-2.3452,-2.3437,-2.3637,-2.3638,-2.3639,0,0,-2.3645,-2.3648,-2.3599,-2.3596,-2.3594,-2.361,-2.3598,-2.3603,-2.3608,-2.3555,-2.3596,-2.3565,-2.3513,-2.3504,-2.3493,-2.3375,-2.3406,-2.3365,-2.3295,-2.3254,-2.3239,-2.3227,-2.3184,-2.3169,-2.3356,-2.3356,-2.3356,0,-2.3576,-2.3533,-2.3568,-2.3529,-2.3518,-2.3572,-2.352,-2.3515,-2.3501,-2.3491,-2.3524,-2.3461,-2.3457,-2.3386,-2.3358,-2.3347,-2.3333,-2.3365,-2.3239,-2.3227,-2.3216,-2.3176,-2.316,-2.3351,-2.3351,-2.3352,-2.3352,0,-2.3448,-2.3417,-2.3376,-2.3368,-2.3352,-2.3307,-2.3333,-2.3312,-2.3336,-2.3348,-2.3292,-2.3291,-2.3265,-2.325,-2.3271,-2.3182,-2.3199,-2.3235,-2.329,-2.3193,-2.3156,-2.3141,-2.3344,-2.3346,-2.3347,-2.3348,0,0,-2.3277,-2.3291,-2.3275,-2.3272,-2.3274,-2.3249,-2.3205,-2.3184,-2.3166,-2.3155,-2.3117,-2.3073,-2.3107,-2.3094,-2.3114,-2.3078,-2.2985,-2.3118,-2.3118,-2.3093,-2.2886,-2.2859,-2.2841,-2.3006,-2.3003,-2.3001,-2.2887,0,-2.3164,-2.3094,-2.3125,-2.3051,-2.3022,-2.3072,-2.3034,-2.3029,-2.3039,-2.3013,-2.3022,-2.2991,-2.3038,-2.303,-2.2997,-2.3003,-2.2944,-2.3012,-2.2969,-2.2967,-2.297,-2.2822,-2.2793,-2.2685,-2.2873,-2.287,-2.2869,0,-2.3022,-2.3011,-2.2934,-2.2943,-2.2932,-2.2897,-2.2881,-2.2857,-2.2851,-2.2861,-2.2848,-2.2877,-2.2832,-2.2888,-2.2825,-2.2871,-2.2855,-2.2856,-2.2852,-2.2848,-2.2911,-2.2813,-2.2652,-2.2635,-2.2846,-2.2848,-2.285,0,-2.2905,-2.2869,-2.282,-2.2815,-2.2824,-2.2799,-2.28,-2.2799,-2.2785,-2.2769,-2.276,-2.2737,-2.2724,-2.2705,-2.2726,-2.2766,-2.266,-2.2718,-2.2664,-2.2663,-2.2638,-2.2639,-2.2471,-2.2629,-2.2629,-2.263,-2.263,0,-2.2775,-2.2726,-2.2768,-2.2736,-2.2683,-2.2718,-2.2663,-2.267,-2.2668,-2.2637,-2.2678,-2.2648,-2.2678,-2.2649,-2.2665,-2.261,-2.2604,-2.2609,-2.2613,-2.2605,-2.2604,-2.2594,-2.2601,-2.2625,-2.2626,-2.2627,-2.2628,0,-2.2634,-2.266,-2.2609,-2.2623,-2.2625,-2.2585,-2.2595,-2.2566,-2.258,-2.254,-2.2532,-2.2552,-2.2521,-2.2541,-2.2507,-2.2518,-2.2447,-2.2462,-2.2449,-2.2453,-2.2398,-2.2403,-2.2217,-2.2194,-2.2367,-2.2365,-2.2364,0,-2.2549,-2.2513,-2.2525,-2.2509,-2.251,-2.2483,-2.247,-2.2503,-2.2487,-2.248,-2.2451,-2.2424,-2.2404,-2.2351,-2.236,-2.2335,-2.2349,-2.2286,-2.2345,-2.2338,-2.2347,-2.2349,-2.2345,-2.2273,-2.2271,-2.2269,-2.2268,0,-2.2395,-2.2411,-2.2392,-2.2378,-2.2363,-2.2352,-2.2344,-2.2328,-2.2362,-2.2341,-2.2312,-2.2297,-2.2266,-2.2238,-2.2217,-2.2215,-2.2246,-2.225,-2.2236,-2.2226,-2.2221,-2.2223,-2.2416,-2.2253,-2.2255,-2.2256,-2.2257,-2.2257,-2.2279,-2.2251,-2.2255,-2.2233,-2.2232,-2.2224,-2.2198,-2.221,-2.2187,-2.2167,-2.2187,-2.2152,-2.2147,-2.2124,-2.2118,-2.2089,-2.2114,-2.2093,-2.2088,-2.2082,-2.2075,-2.2227,-2.2085,-2.2085,-2.2086,-2.2086,-2.2086,0,-2.2128,-2.2134,-2.2113,-2.2104,-2.2086,-2.2122,-2.2115,-2.2097,-2.2067,-2.2062,-2.2044,-2.2009,-2.1983,-2.1991,-2.1967,-2.1942,-2.1955,-2.1934,-2.1936,-2.1935,-2.2054,-2.2068,-2.1924,-2.1924,-2.1924,-2.1924,-2.1924,-2.1924,-2.2046,-2.2,-2.2016,-2.1968,-2.1973,-2.1942,-2.1935,-2.1928,-2.1925,-2.1887,-2.1867,-2.1874,-2.1874,-2.185,-2.1827,-2.183,-2.1818,-2.1792,-2.1799,-2.191,-2.1926,-2.1941,-2.1955,-2.1789,-2.1789,-2.1682,-2.1681,-2.1681]}]]